カタログに戻る

STARLINK-4268

運用中通信VLEO
NORAD 53183·PAYLOAD·🇺🇸 United States

打ち上げ Jul 17, 2022 から Cape Canaveral Space Force Station

Loading…

次のパス (今後24時間)

TLE

最新Source: CelesTrak SupGP

元期: Sep 15, 2026, 02:37 UTC

1 53183C 22083BD  26258.10951389  .00049762  00000+0  14237-2 0  2588
2 53183  53.1587 347.0825 0001127  93.6899 149.6844 15.35374546    15

AllMySatでSTARLINK-4268をリアルタイム追跡

Download on the App Store